Location: Harbor View
(36.2448°N, 86.5797°W)
Time: 08:30:56
(UTC+00:00)

Cosmos 1825 - Pass Details

Date: 29 October 2020
Orbit: 501 x 508 km, 82.5° (Epoch: 04 December)

Event Time Altitude Azimuth Distance (km) Brightness Sun altitude
Rises 23:32:23 0° 16° (NNE) 2,616 5.5 -8.6°
Reaches altitude 10° 23:35:38 10° 47° (NE) 1,723 4.3 -9.3°
Enters shadow 23:36:53 12° 66° (ENE) 1,577 4.0 -9.5°
